Time,TemperatureF,DewpointF,PressureIn,WindDirection,WindDirectionDegrees,WindSpeedMPH,WindSpeedGustMPH,Humidity,HourlyPrecipIn,Conditions,Clouds,dailyrainin,SoftwareType,DateUTC
2013-04-10 00:13:00,63.5,46.0,29.88,SSE,155,0.0,1.0,54,0.00,,,0.00,weatherlink.com 1.10,2013-04-10 04:13:00,
2013-04-10 00:28:00,63.5,47.0,29.87,South,176,0.0,0.0,55,0.00,,,0.00,weatherlink.com 1.10,2013-04-10 04:28:00,
2013-04-10 00:43:00,64.1,47.0,29.87,SSE,155,0.0,2.0,55,0.00,,,0.00,weatherlink.com 1.10,2013-04-10 04:43:00,
2013-04-10 00:58:00,64.7,48.0,29.86,SSE,148,0.0,1.0,55,0.00,,,0.00,weatherlink.com 1.10,2013-04-10 04:58:00,
2013-04-10 01:13:00,65.7,48.0,29.86,South,180,0.0,1.0,54,0.00,,,0.00,weatherlink.com 1.10,2013-04-10 05:13:00,
2013-04-10 01:28:00,66.2,49.0,29.85,SSW,203,0.0,2.0,55,0.00,,,0.00,weatherlink.com 1.10,2013-04-10 05:28:00,
2013-04-10 01:43:00,66.8,50.0,29.84,SW,218,0.0,1.0,56,0.00,,,0.00,weatherlink.com 1.10,2013-04-10 05:43:00,
2013-04-10 01:58:00,67.4,51.0,29.84,SSW,210,0.0,3.0,56,0.00,,,0.00,weatherlink.com 1.10,2013-04-10 05:58:00,
2013-04-10 02:13:00,67.4,51.0,29.83,SW,224,0.0,0.0,56,0.00,,,0.00,weatherlink.com 1.10,2013-04-10 06:13:00,
2013-04-10 02:28:00,67.8,52.0,29.81,WSW,242,2.0,3.0,58,0.00,,,0.00,weatherlink.com 1.10,2013-04-10 06:28:00,
2013-04-10 02:43:00,68.7,53.0,29.80,West,270,0.0,5.0,57,0.00,,,0.00,weatherlink.com 1.10,2013-04-10 06:43:00,
2013-04-10 02:58:00,69.0,53.0,29.80,West,270,1.0,4.0,57,0.00,,,0.00,weatherlink.com 1.10,2013-04-10 06:58:00,
2013-04-10 03:13:00,69.6,54.0,29.80,WNW,292,2.0,8.0,57,0.00,,,0.00,weatherlink.com 1.10,2013-04-10 07:13:00,
2013-04-10 03:28:00,69.5,53.0,29.80,West,264,2.0,8.0,57,0.00,,,0.00,weatherlink.com 1.10,2013-04-10 07:28:00,
2013-04-10 03:43:00,69.2,54.0,29.82,West,281,3.0,8.0,58,0.00,,,0.00,weatherlink.com 1.10,2013-04-10 07:43:00,
2013-04-10 03:58:00,69.1,54.0,29.83,West,281,0.0,6.0,58,0.00,,,0.00,weatherlink.com 1.10,2013-04-10 07:58:00,
2013-04-10 04:13:00,68.4,52.0,29.84,East,84,0.0,4.0,57,0.00,,,0.00,weatherlink.com 1.10,2013-04-10 08:13:00,
2013-04-10 04:28:00,65.7,46.0,29.85,East,97,5.0,10.0,50,0.00,,,0.00,weatherlink.com 1.10,2013-04-10 08:28:00,
2013-04-10 04:44:00,62.3,45.0,29.86,ENE,70,3.0,13.0,54,0.00,,,0.00,weatherlink.com 1.10,2013-04-10 08:44:00,
2013-04-10 04:59:00,61.2,46.0,29.85,ENE,63,4.0,7.0,58,0.00,,,0.00,weatherlink.com 1.10,2013-04-10 08:59:00,
2013-04-10 05:14:00,61.1,46.0,29.86,East,81,1.0,5.0,58,0.00,,,0.00,weatherlink.com 1.10,2013-04-10 09:14:00,
2013-04-10 05:29:00,60.7,46.0,29.87,ENE,57,4.0,9.0,59,0.00,,,0.00,weatherlink.com 1.10,2013-04-10 09:29:00,
2013-04-10 05:44:00,60.3,46.0,29.87,NE,56,4.0,8.0,60,0.00,,,0.00,weatherlink.com 1.10,2013-04-10 09:44:00,
2013-04-10 05:59:00,59.4,46.0,29.87,ESE,117,2.0,4.0,61,0.00,,,0.00,weatherlink.com 1.10,2013-04-10 09:59:00,
2013-04-10 06:14:00,58.1,45.0,29.89,ENE,76,1.0,6.0,63,0.00,,,0.00,weatherlink.com 1.10,2013-04-10 10:14:00,
2013-04-10 06:29:00,57.6,46.0,29.89,ENE,77,0.0,7.0,66,0.00,,,0.00,weatherlink.com 1.10,2013-04-10 10:29:00,
2013-04-10 06:44:00,57.4,46.0,29.89,East,82,3.0,6.0,67,0.00,,,0.00,weatherlink.com 1.10,2013-04-10 10:44:00,
2013-04-10 06:59:00,57.4,47.0,29.89,ENE,63,0.0,4.0,68,0.00,,,0.00,weatherlink.com 1.10,2013-04-10 10:59:00,
2013-04-10 07:14:00,57.7,47.0,29.90,ENE,61,2.0,3.0,68,0.00,,,0.00,weatherlink.com 1.10,2013-04-10 11:14:00,
2013-04-10 07:29:00,58.3,47.0,29.90,ENE,74,2.0,5.0,67,0.00,,,0.00,weatherlink.com 1.10,2013-04-10 11:29:00,
2013-04-10 07:44:00,58.7,48.0,29.92,NE,49,1.0,4.0,67,0.00,,,0.00,weatherlink.com 1.10,2013-04-10 11:44:00,
2013-04-10 07:59:00,58.8,48.0,29.92,ENE,70,2.0,5.0,67,0.00,,,0.00,weatherlink.com 1.10,2013-04-10 11:59:00,
2013-04-10 08:14:00,59.0,48.0,29.93,ENE,72,1.0,3.0,67,0.00,,,0.00,weatherlink.com 1.10,2013-04-10 12:14:00,
2013-04-10 08:29:00,59.7,48.0,29.93,ENE,66,0.0,2.0,65,0.00,,,0.00,weatherlink.com 1.10,2013-04-10 12:29:00,
2013-04-10 08:44:00,59.9,48.0,29.93,ESE,103,1.0,4.0,65,0.00,,,0.00,weatherlink.com 1.10,2013-04-10 12:44:00,
2013-04-10 08:59:00,59.9,48.0,29.92,NE,51,1.0,2.0,65,0.00,,,0.00,weatherlink.com 1.10,2013-04-10 12:59:00,
2013-04-10 09:14:00,60.7,48.0,29.92,SE,124,1.0,3.0,64,0.00,,,0.00,weatherlink.com 1.10,2013-04-10 13:14:00,
2013-04-10 09:29:00,61.8,48.0,29.92,ENE,72,2.0,5.0,62,0.00,,,0.00,weatherlink.com 1.10,2013-04-10 13:29:00,
2013-04-10 09:44:00,62.7,49.0,29.92,ESE,106,0.0,4.0,61,0.00,,,0.00,weatherlink.com 1.10,2013-04-10 13:44:00,
2013-04-10 09:59:00,64.1,49.0,29.91,East,96,1.0,3.0,58,0.00,,,0.00,weatherlink.com 1.10,2013-04-10 13:59:00,
2013-04-10 10:14:00,64.3,49.0,29.92,ENE,57,4.0,5.0,59,0.00,,,0.00,weatherlink.com 1.10,2013-04-10 14:14:00,
2013-04-10 10:29:00,64.0,49.0,29.92,ENE,60,2.0,6.0,59,0.00,,,0.00,weatherlink.com 1.10,2013-04-10 14:29:00,
2013-04-10 10:44:00,64.7,49.0,29.91,ENE,75,1.0,7.0,58,0.00,,,0.00,weatherlink.com 1.10,2013-04-10 14:44:00,
2013-04-10 10:59:00,65.9,50.0,29.91,ENE,64,2.0,5.0,57,0.00,,,0.00,weatherlink.com 1.10,2013-04-10 14:59:00,
2013-04-10 11:14:00,67.2,50.0,29.92,ENE,68,4.0,5.0,55,0.00,,,0.00,weatherlink.com 1.10,2013-04-10 15:14:00,
2013-04-10 11:29:00,67.1,50.0,29.91,NE,53,4.0,6.0,55,0.00,,,0.00,weatherlink.com 1.10,2013-04-10 15:29:00,
2013-04-10 11:44:00,66.4,50.0,29.91,East,88,2.0,7.0,56,0.00,,,0.00,weatherlink.com 1.10,2013-04-10 15:44:00,
2013-04-10 11:59:00,67.4,51.0,29.92,NE,54,3.0,6.0,55,0.00,,,0.00,weatherlink.com 1.10,2013-04-10 15:59:00,
2013-04-10 12:14:00,68.6,51.0,29.92,East,84,1.0,5.0,54,0.00,,,0.00,weatherlink.com 1.10,2013-04-10 16:14:00,
2013-04-10 12:29:00,68.7,51.0,29.91,ENE,73,2.0,7.0,53,0.00,,,0.00,weatherlink.com 1.10,2013-04-10 16:29:00,
2013-04-10 12:44:00,70.1,51.0,29.91,NE,46,5.0,12.0,51,0.00,,,0.00,weatherlink.com 1.10,2013-04-10 16:44:00,
2013-04-10 12:59:00,69.9,51.0,29.91,ENE,78,1.0,9.0,51,0.00,,,0.00,weatherlink.com 1.10,2013-04-10 16:59:00,
2013-04-10 13:14:00,70.4,52.0,29.90,NNE,32,5.0,7.0,52,0.00,,,0.00,weatherlink.com 1.10,2013-04-10 17:14:00,
2013-04-10 13:29:00,71.1,51.0,29.90,ENE,69,5.0,8.0,50,0.00,,,0.00,weatherlink.com 1.10,2013-04-10 17:29:00,
2013-04-10 13:44:00,70.8,52.0,29.90,ENE,58,2.0,10.0,51,0.00,,,0.00,weatherlink.com 1.10,2013-04-10 17:44:00,
2013-04-10 13:59:00,72.5,53.0,29.90,East,86,2.0,5.0,50,0.00,,,0.00,weatherlink.com 1.10,2013-04-10 17:59:00,
2013-04-10 14:14:00,71.7,53.0,29.89,ENE,57,8.0,10.0,52,0.00,,,0.00,weatherlink.com 1.10,2013-04-10 18:14:00,
2013-04-10 14:44:00,72.3,51.0,29.88,ENE,76,3.0,8.0,48,0.00,,,0.00,weatherlink.com 1.10,2013-04-10 18:44:00,
2013-04-10 14:59:00,70.5,50.0,29.88,East,81,3.0,8.0,49,0.00,,,0.00,weatherlink.com 1.10,2013-04-10 18:59:00,
2013-04-10 15:14:00,67.8,50.0,29.88,South,176,8.0,11.0,53,0.00,,,0.00,weatherlink.com 1.10,2013-04-10 19:14:00,
2013-04-10 15:30:00,67.8,50.0,29.87,SSE,160,1.0,8.0,53,0.00,,,0.00,weatherlink.com 1.10,2013-04-10 19:30:00,
2013-04-10 15:45:00,68.2,50.0,29.87,SE,144,5.0,9.0,52,0.00,,,0.00,weatherlink.com 1.10,2013-04-10 19:45:00,
2013-04-10 16:00:00,67.2,50.0,29.86,ENE,68,4.0,10.0,54,0.00,,,0.00,weatherlink.com 1.10,2013-04-10 20:00:00,
2013-04-10 16:15:00,65.3,49.0,29.86,SE,142,2.0,13.0,56,0.00,,,0.00,weatherlink.com 1.10,2013-04-10 20:15:00,
2013-04-10 16:30:00,63.8,49.0,29.86,ESE,115,3.0,10.0,59,0.00,,,0.00,weatherlink.com 1.10,2013-04-10 20:30:00,
2013-04-10 16:45:00,62.5,49.0,29.87,NNE,23,3.0,9.0,61,0.00,,,0.00,weatherlink.com 1.10,2013-04-10 20:45:00,
2013-04-10 17:00:00,62.0,49.0,29.86,ENE,72,5.0,8.0,62,0.00,,,0.00,weatherlink.com 1.10,2013-04-10 21:00:00,
2013-04-10 17:15:00,61.5,49.0,29.86,NE,37,3.0,9.0,63,0.00,,,0.00,weatherlink.com 1.10,2013-04-10 21:15:00,
2013-04-10 17:30:00,59.8,48.0,29.85,East,88,4.0,12.0,65,0.00,,,0.00,weatherlink.com 1.10,2013-04-10 21:30:00,
2013-04-10 17:45:00,58.1,48.0,29.85,East,88,4.0,15.0,68,0.00,,,0.00,weatherlink.com 1.10,2013-04-10 21:45:00,
2013-04-10 18:00:00,57.3,48.0,29.84,East,79,2.0,8.0,71,0.00,,,0.00,weatherlink.com 1.10,2013-04-10 22:00:00,
2013-04-10 18:15:00,56.9,48.0,29.85,SW,222,2.0,8.0,71,0.00,,,0.00,weatherlink.com 1.10,2013-04-10 22:15:00,
2013-04-10 18:30:00,56.1,48.0,29.83,SW,228,5.0,6.0,73,0.00,,,0.00,weatherlink.com 1.10,2013-04-10 22:30:00,
2013-04-10 18:45:00,55.7,48.0,29.83,SSW,208,5.0,8.0,74,0.00,,,0.00,weatherlink.com 1.10,2013-04-10 22:45:00,
2013-04-10 19:00:00,55.6,48.0,29.83,SE,128,1.0,7.0,75,0.00,,,0.00,weatherlink.com 1.10,2013-04-10 23:00:00,
2013-04-10 19:15:00,59.4,50.0,29.96,South,191,4.0,16.0,72,0.00,,,0.00,weatherlink.com 1.10,2013-04-10 23:15:00,
2013-04-10 19:30:00,60.4,53.0,29.91,ESE,103,1.0,3.0,76,0.21,,,0.21,weatherlink.com 1.10,2013-04-10 23:30:00,
2013-04-10 19:45:00,58.4,54.0,29.87,East,94,1.0,3.0,85,0.31,,,0.31,weatherlink.com 1.10,2013-04-10 23:45:00,
2013-04-10 20:00:00,58.2,55.0,29.82,ENE,67,7.0,7.0,88,0.33,,,0.33,weatherlink.com 1.10,2013-04-11 00:00:00,
2013-04-10 20:16:00,58.4,55.0,29.80,East,101,7.0,9.0,88,0.35,,,0.35,weatherlink.com 1.10,2013-04-11 00:16:00,
2013-04-10 20:30:00,58.6,55.0,29.81,SSE,153,5.0,11.0,88,0.14,,,0.35,weatherlink.com 1.10,2013-04-11 00:30:00,
2013-04-10 20:45:00,58.4,54.0,29.81,East,79,2.0,10.0,86,0.04,,,0.35,weatherlink.com 1.10,2013-04-11 00:45:00,
2013-04-10 21:00:00,58.3,54.0,29.82,East,101,0.0,6.0,86,0.02,,,0.35,weatherlink.com 1.10,2013-04-11 01:00:00,
2013-04-10 21:15:00,57.9,54.0,29.85,ESE,105,4.0,6.0,86,0.00,,,0.35,weatherlink.com 1.10,2013-04-11 01:15:00,
2013-04-10 21:30:00,57.5,53.0,29.84,SSE,158,4.0,8.0,86,0.00,,,0.35,weatherlink.com 1.10,2013-04-11 01:30:00,
2013-04-10 21:45:00,56.8,53.0,29.81,SSE,156,5.0,8.0,86,0.00,,,0.35,weatherlink.com 1.10,2013-04-11 01:45:00,
2013-04-10 22:00:00,56.2,52.0,29.82,ENE,65,0.0,5.0,87,0.00,,,0.35,weatherlink.com 1.10,2013-04-11 02:00:00,
2013-04-10 22:15:00,56.1,53.0,29.82,ENE,66,2.0,6.0,88,0.00,,,0.35,weatherlink.com 1.10,2013-04-11 02:15:00,
2013-04-10 22:30:00,57.3,54.0,29.89,WNW,285,3.0,14.0,88,0.04,,,0.39,weatherlink.com 1.10,2013-04-11 02:30:00,
2013-04-10 22:45:00,57.8,55.0,29.90,WNW,293,1.0,6.0,91,0.16,,,0.51,weatherlink.com 1.10,2013-04-11 02:45:00,
2013-04-10 23:00:00,57.6,55.0,29.87,SE,143,1.0,2.0,92,0.20,,,0.55,weatherlink.com 1.10,2013-04-11 03:00:00,
2013-04-10 23:15:00,57.5,56.0,29.87,SSE,165,0.0,3.0,93,0.25,,,0.60,weatherlink.com 1.10,2013-04-11 03:15:00,
2013-04-10 23:45:00,57.9,56.0,29.85,SE,131,0.0,3.0,94,0.10,,,0.61,weatherlink.com 1.10,2013-04-11 03:45:00,